Location: Larrial
(48.2758°N, 4.5331°W)
Time: 01:07:29
(UTC+00:00)

XW-2F - Pass Details

Date: 01 December 2021
Orbit: 495 x 515 km, 97.5° (Epoch: 16 January)

Event Time Altitude Azimuth Distance (km) Brightness Sun altitude
Rises 06:23:59 0° 16° (NNE) 2,652 ? -13.4°
Reaches altitude 10° 06:26:07 10° 20° (NNE) 1,760 ? -13.1°
Maximum altitude 06:29:52 59° 100° (E) 604 ? -12.5°
Drops below altitude 10° 06:33:35 10° 181° (S) 1,742 ? -11.9°
Sets 06:35:42 0° 185° (S) 2,622 ? -11.6°
